Overview Statistics Trail Chart Weather Telemetry Raw packets
 

This is the latest recevied weather packets stored in our database for station/object SP9WJ-3. If no packets are shown the sender has not sent any weather packets the latest 10 day(s).

<< 1 2 3 4 5 >>
Time Temp. Humidity Pressure Rain* Wind** Luminosity Snow
1788203585 23.33° C 54% 981.7 hPa - - - -
1788202665 23.33° C 54% 981.6 hPa - - - -
1788201746 24.44° C 52% 981.5 hPa - - - -
1788198067 25.56° C 45% 980.9 hPa - - - -
1788197186 26.67° C 42% 980.7 hPa - - - -
1788197146 26.67° C 42% 980.7 hPa - - - -
1788196281 27.78° C 38% 980.6 hPa - - - -
1788196226 27.78° C 38% 980.6 hPa - - - -
1788195321 28.89° C 35% 980.6 hPa - - - -
1788194384 31.11° C 29% 980.6 hPa - - - -
1788193462 33.33° C 23% 980.5 hPa - - - -
1788192539 33.33° C 23% 980.4 hPa - - - -
1788191617 32.78° C 24% 980.4 hPa - - - -
1788190695 31.11° C 29% 980.5 hPa - - - -
1788189774 28.89° C 34% 980.5 hPa - - - -
1788188853 30° C 31% 980.5 hPa - - - -
1788187010 28.89° C 36% 980.6 hPa - - - -
1788186089 29.44° C 35% 980.7 hPa - - - -
1788184247 27.22° C 41% 980.6 hPa - - - -
1788183327 26.67° C 43% 980.7 hPa - - - -
1788182407 26.67° C 43% 980.9 hPa - - - -
1788181486 26.11° C 43% 980.9 hPa - - - -
1788180566 26.11° C 43% 980.8 hPa - - - -
1788179646 26.11° C 43% 980.9 hPa - - - -
1788178725 26.11° C 42% 980.8 hPa - - - -

* Rain since midnight (hover to see other rain measurements)
** Current wind speed in m/s (hover to see current wind gust speed)